Content
SEND FEEDBACK

Daily
Averages
Monthly
Summary
United States of America

SMITHVILLE, TEXAS


Home > North America > United States > Texas
Elevation: 315 feet     Latitude: 30 01N     Longitude: 097 09W

WEATHER
 
SELECT A DAY
Number of Records: 304,010;   Date Range: 11/13/01 - 7/23/14
 
SHARE

PRINT THIS DATA

[ ← Previous Day ]
WEATHER ALMANAC - FEBRUARY 13, 2013
[ Next Day → ]
[ °C ]   °F
Weather ElementAverageHighLow
Temperature50.4 °F60.8 °F (3:35 pm)41 °F (7:15 am)
Dewpoint39.6 °F48.2 °F (12:35 am)37.4 °F (2:35 am)
Humidity68.3 %93 % (10:55 pm)42 % (3:35 pm)
Barometer30.08 in30.14 in (8:35 am)29.99 in (12:35 am)
Wind Speed5.8 mph15 mph (2:35 am)
Wind Gust19.6 mph (1:35 am)
Weather ElementAverage
Visibility10 mi
Wind DirectionSSW (202.7 °)

Weather ElementTotal
Precipitation---
Heating Degree Days14.1 (Base 65)
Growing Degree Days0.9 (Base 50)
Averaged from 71 records on February 13, 2013
WEATHER CONDITIONS BREAKOUT
WIND DIRECTION BREAKOUT
WEATHER BY HOUR - FEBRUARY 13, 2013
[ °C ]   °F
Local TimeTemperatureDewpointHumidityBarometerVisibilityWind DirectionWind SpeedGust SpeedPrecipitationEventsConditions
12:35 AM55.4 °F48.2 °F77 %29.99 in10.0 miNorth (350°)11.5 mphClear
12:55 AM53.6 °F44.6 °F72 %30.03 in10.0 miNNW (330°)11.5 mph17.3 mphClear
1:15 AM53.6 °F44.6 °F72 %30.05 in10.0 miNNW (340°)10.4 mph17.3 mphClear
1:35 AM51.8 °F42.8 °F71 %30.05 in10.0 miNNW (340°)10.4 mph19.6 mphScattered Clouds
1:55 AM51.8 °F41.0 °F67 %30.07 in10.0 miNNW (330°)13.8 mph19.6 mphScattered Clouds
2:15 AM50.0 °F41.0 °F71 %30.07 in10.0 miNW (320°)12.7 mphClear
2:35 AM50.0 °F37.4 °F62 %30.07 in10.0 miNNW (330°)15.0 mph18.4 mphClear
2:55 AM48.2 °F37.4 °F66 %30.08 in10.0 miNNW (330°)10.4 mphClear
3:15 AM46.4 °F37.4 °F71 %30.07 in10.0 miNNW (330°)11.5 mphClear
3:35 AM46.4 °F37.4 °F71 %30.07 in10.0 miNNW (340°)5.8 mphClear
3:55 AM46.4 °F37.4 °F71 %30.07 in10.0 miNNW (330°)8.1 mphClear
4:15 AM44.6 °F37.4 °F76 %30.07 in10.0 miNW (320°)5.8 mphClear
4:35 AM44.6 °F37.4 °F76 %30.07 in10.0 miNNW (340°)6.9 mphClear
4:55 AM44.6 °F37.4 °F76 %30.08 in10.0 miNNW (340°)8.1 mphClear
5:15 AM44.6 °F37.4 °F76 %30.08 in10.0 miNorth (350°)8.1 mphClear
5:35 AM44.6 °F37.4 °F76 %30.10 in10.0 miNNW (330°)5.8 mphClear
5:55 AM42.8 °F37.4 °F81 %30.10 in10.0 miNNW (340°)3.5 mphClear
6:15 AM42.8 °F37.4 °F81 %30.11 in10.0 miCalmClear
6:35 AM42.8 °F37.4 °F81 %30.11 in10.0 miNNW (340°)3.5 mphClear
6:55 AM42.8 °F37.4 °F81 %30.12 in10.0 miCalmClear
7:15 AM41.0 °F37.4 °F87 %30.12 in10.0 miNNW (330°)4.6 mphClear
7:35 AM41.0 °F37.4 °F87 %30.12 in10.0 miNNW (340°)6.9 mphClear
7:55 AM42.8 °F37.4 °F81 %30.12 in10.0 miNNW (330°)5.8 mphClear
8:15 AM44.6 °F39.2 °F81 %30.12 in10.0 miNNW (340°)9.2 mphClear
8:35 AM44.6 °F39.2 °F81 %30.14 in10.0 miNorth (350°)10.4 mphClear
8:55 AM46.4 °F39.2 °F76 %30.13 in10.0 miNorth (350°)12.7 mphClear
9:15 AM46.4 °F37.4 °F71 %30.13 in10.0 miNorth (350°)13.8 mph19.6 mphClear
9:35 AM48.2 °F39.2 °F71 %30.13 in10.0 miNorth (360°)11.5 mph18.4 mphClear
9:55 AM48.2 °F39.2 °F71 %30.14 in10.0 miNorth (350°)9.2 mphClear
10:15 AM50.0 °F39.2 °F66 %30.14 in10.0 miNNW (340°)10.4 mphClear
10:35 AM50.0 °F39.2 °F66 %30.14 in10.0 miNorth (350°)10.4 mphClear
10:55 AM51.8 °F39.2 °F62 %30.14 in10.0 miNorth (360°)9.2 mphClear
11:15 AM51.8 °F39.2 °F62 %30.14 in10.0 miNorth (10°)8.1 mph17.3 mphClear
11:35 AM53.6 °F41.0 °F62 %30.14 in10.0 miNorth (360°)9.2 mphScattered Clouds
11:55 AM53.6 °F39.2 °F58 %30.13 in10.0 miNW (310°)5.8 mphClear
12:15 PM53.6 °F39.2 °F58 %30.12 in10.0 miNorth (10°)8.1 mphClear
12:35 PM55.4 °F39.2 °F54 %30.12 in10.0 miNNE (20°)6.9 mphClear
12:55 PM55.4 °F41.0 °F58 %30.10 in10.0 miNorth (10°)6.9 mphClear
1:15 PM55.4 °F41.0 °F58 %30.10 in10.0 miNorth (360°)8.1 mphClear
1:35 PM57.2 °F39.2 °F51 %30.09 in10.0 miNorth (10°)5.8 mphClear
1:55 PM59.0 °F41.0 °F51 %30.07 in10.0 miNW (310°)4.6 mphClear
2:15 PM59.0 °F39.2 °F48 %30.06 in10.0 miNorth (10°)6.9 mphClear
2:35 PM59.0 °F39.2 °F48 %30.06 in10.0 miNNW (340°)4.6 mphClear
2:55 PM59.0 °F37.4 °F45 %30.05 in10.0 miNNW (330°)8.1 mphClear
3:15 PM59.0 °F39.2 °F48 %30.05 in10.0 miNorth (350°)8.1 mphClear
3:35 PM60.8 °F37.4 °F42 %30.04 in10.0 miNNW (330°)10.4 mphClear
3:55 PM60.8 °F39.2 °F45 %30.04 in10.0 miNorth (350°)6.9 mphClear
4:15 PM60.8 °F37.4 °F42 %30.04 in10.0 miNorth (360°)5.8 mphClear
4:35 PM60.8 °F37.4 °F42 %30.04 in10.0 miNNE (20°)5.8 mphClear
4:55 PM60.8 °F37.4 °F42 %30.04 in10.0 miNorth (360°)6.9 mphClear
5:15 PM60.8 °F37.4 °F42 %30.04 in10.0 miNorth (360°)6.9 mphClear
5:35 PM59.0 °F37.4 °F45 %30.04 in10.0 miCalmClear
5:55 PM59.0 °F39.2 °F48 %30.04 in10.0 miCalmClear
6:15 PM59.0 °F41.0 °F51 %30.04 in10.0 miCalmClear
6:35 PM55.4 °F41.0 °F58 %30.04 in10.0 miCalmClear
6:55 PM55.4 °F41.0 °F58 %30.04 in10.0 miCalmClear
7:15 PM51.8 °F42.8 °F71 %30.05 in10.0 miCalmClear
7:35 PM50.0 °F42.8 °F76 %30.06 in10.0 miCalmClear
7:55 PM48.2 °F42.8 °F82 %30.06 in10.0 miCalmClear
8:15 PM48.2 °F42.8 °F82 %30.06 in10.0 miCalmClear
8:35 PM50.0 °F42.8 °F76 %30.06 in10.0 miCalmClear
8:55 PM46.4 °F41.0 °F81 %30.07 in10.0 miCalmClear
9:15 PM46.4 °F42.8 °F87 %30.07 in10.0 miCalmClear
9:35 PM44.6 °F41.0 °F87 %30.07 in10.0 miCalmClear
9:55 PM48.2 °F41.0 °F76 %30.08 in10.0 miCalmClear
10:15 PM46.4 °F41.0 °F81 %30.08 in10.0 miCalmClear
10:35 PM44.6 °F41.0 °F87 %30.08 in10.0 miCalmClear
10:55 PM42.8 °F41.0 °F93 %30.08 in10.0 miCalmClear
11:15 PM42.8 °F41.0 °F93 %30.09 in10.0 miCalmClear
11:35 PM42.8 °F41.0 °F93 %30.09 in10.0 miCalmClear
11:55 PM41.0 °F39.2 °F93 %30.09 in10.0 miCalmClear
Hourly data recorded from K3T5, located miles away from Smithville, Texas







STORIES FROM OUR PARTNERS